Terminal Aerodrome Forecast
Issued by NWS

Home | Current Version | Previous Version | Graphics & Text | Print | Product List | Glossary On
Versions: 1 2 3 4 5 6 7 8 9 10 11 12 13 14 15 16 17
000
FTUS43 KOAX 250227 AAA
TAFCDR
TAF AMD
KCDR 250227Z 2502/2524 VRB05KT P6SM VCTS BKN080CB
      TEMPO 2502/2506 VRB15G25KT 5SM -TSRA SCT030 BKN050CB
     FM250700 VRB05KT P6SM VCSH BKN050=

USA.gov is the U.S. government's official web portal to all federal, state and local government web resources and services.